STARLINK-35212, 65496

Orbit data source: Space-Track

STARLINK-35212, 65496 is a payload satellite owned by SpaceX/Seattle (US) in LEO that was launched on Fri, 05 Sep 2025 UTC via an FALCON 9 launch vehicle from the Air Force Eastern Test Range (AFETR). Payload-class satellites include a variety of spacecraft equipped with specific instruments for various scientific and technological missions. These include communications satellites like Starlink; space stations such as the ISS; scientific satellites like the Hubble; Earth observation satellites from companies like Planet Labs, Umbra, and HawkEye 360; GPS; miniature CubeSats for education and research; and military/defense satellites.

Loading next visibility...
Identifier
65496, 2025-198E
Orbit
LEO
Country
Flag of USUS
Related business
Manufacturer
SpaceX/Seattle
Mission
Operational Commercial Communications
Bus & Motor
STARLINK V2MO, Unknown motor
Mass
575 kg wet, ~530 kg dry
Launch date (UTC)
2025-09-05 (9 months ago)
Launch vehicle
FALCON 9
Launch site
Air Force Eastern Test Range (AFETR)
Object type
Payload
Rocket body
Debris
Shape & HBR
Box + 2 Pan, 17.7 m
Radar Cross Section
36.964 m², Large (>1 m²)

Expand to show TLE details & history
Last TLE update: 10 hours ago

TLE from 10 hours ago
0 STARLINK-35212
1 65496U 25198E   26171.41668980  .00907689  00000-0  25503-1 0  9999
2 65496  53.1588 153.9197 0000267 309.9336 168.0907 15.33693008  5896
Epoch: 2026-06-20T10:00Z
TLE epoch observation values (Epoch: 2026-06-20T10:00:01.998Z)
Latitude
45.08919°
Longitude
-133.08539°
Altitude
469.687 km
Speed
7.637 km/s
True Right ascension
19h 02m 13s
True Declination
44° 54' 36"
Sunlit
Object was in daylight at epoch
Visualization orbit readout
Latitude
Unknown
Longitude
Unknown
Altitude
Unknown
Speed
Unknown
Apparent Right ascension
Unknown
Apparent Declination
Unknown
Sunlit
N/A
Visualization observer readout
Local Sidereal Time
07:16:40
Azimuth
Unknown
Elevation
Unknown
Doppler factor
Unknown
Orbital elements
Apogee altitude
465.245 km
Perigee altitude
464.88 km
Semi-major axis
6,843.199 km
Eccentricity
0.00003
Inclination
53.1588°
RAAN
153.9197°
Arg. of periapsis
309.9336°
True anomaly
168.09133°
Mean anomaly
168.0907°
Eccentric anomaly
168.09102°
Mean motion
3.83402 °/min
Orbital period
93.9 mins
BSTAR
0.025503
Loading maneuver chart data...
Computing Atmospheric mass density...
Loading historical data...
Loading historical data...
Loading historical data...
Loading historical data...
Loading historical data...
Loading historical data...
Loading historical data...

Documentation

Showing up to 5 results
|